Theta_e
281 281 280 280 280 280 280 279 279 280 282 283 284 285 285 285 286 286 286 286 287 287 287 287 287 287 287 287 287 287 288 288 289 289 288 288 288 287 287 288 288 288 288 288 288 289 289 288 288 288 288 288 288 288 288 287 288 287 287 287 287 287 287 287 288 285 281 281 281 280 281 281 280 279 279 279 279 279 279 279 279 278 278 278 278
280 280 280 280 280 280 279 278 277 279 281 283 283 284 284 284 285 286 286 287 287 287 287 287 287 287 287 287 287 287 288 288 288 288 288 288 288 287 287 287 288 288 288 288 288 288 288 288 288 288 288 288 288 288 288 287 287 286 286 286 286 287 287 286 287 284 280 279 280 280 280 280 280 279 279 279 279 279 279 279 278 278 278 277 277
280 279 279 279 279 278 278 277 277 278 281 283 283 284 284 284 285 286 286 286 286 286 287 287 287 287 287 287 287 287 288 288 288 288 288 288 288 288 287 287 287 287 287 288 288 288 288 288 288 288 288 288 288 288 287 287 286 286 286 286 286 286 286 286 286 284 280 279 279 279 279 279 279 279 279 279 279 278 278 278 278 277 277 277 277
279 279 279 279 278 277 277 276 277 278 280 282 283 284 284 285 285 286 286 286 285 285 285 285 286 286 287 287 287 287 288 288 288 288 288 288 288 288 288 287 287 287 287 287 287 288 288 288 288 288 287 287 287 287 287 286 286 285 285 285 285 285 285 285 286 284 281 279 278 278 278 278 278 278 278 278 278 278 278 278 278 277 277 277 277
278 278 278 278 277 276 276 276 277 278 280 282 283 284 284 284 284 284 284 284 284 283 283 284 284 285 286 287 287 287 288 288 288 288 288 288 288 288 288 288 287 287 287 287 287 287 287 288 288 287 287 287 287 286 286 286 285 285 285 284 284 285 284 284 285 284 281 279 278 278 278 278 278 278 278 278 278 278 278 278 278 277 277 277 278
278 278 277 276 275 275 275 276 277 278 280 281 282 282 283 282 282 282 282 282 282 282 283 283 284 284 285 286 287 287 287 288 288 287 287 287 288 288 288 288 288 287 287 287 287 287 287 287 287 287 286 286 286 286 286 285 285 284 284 284 284 284 284 283 284 284 282 280 278 278 277 277 277 277 278 278 278 277 277 277 277 277 277 277 277
277 276 275 274 274 274 275 276 277 278 279 280 281 281 281 281 281 281 281 282 282 282 282 283 284 284 285 286 287 287 287 287 287 287 287 287 287 288 288 288 288 287 287 287 287 287 286 287 287 287 286 286 286 286 286 285 284 284 284 284 283 283 283 282 282 283 282 281 279 278 277 277 277 277 277 278 278 277 277 277 277 277 277 277 277
274 274 273 273 273 274 275 276 278 278 279 279 280 280 280 280 280 280 281 281 282 283 283 284 284 285 285 286 287 287 287 288 287 287 287 287 287 287 288 288 287 287 287 287 286 286 286 286 286 286 286 286 286 286 286 285 284 284 283 283 283 282 282 282 282 282 282 281 280 278 278 277 277 277 277 277 277 277 277 277 277 277 277 277 277
273 272 273 273 274 274 275 276 277 278 278 279 279 279 279 279 279 279 280 280 281 282 283 283 284 284 284 285 287 287 287 287 287 288 287 287 287 287 287 288 287 287 287 287 286 286 286 285 285 285 285 286 286 286 285 285 285 284 283 283 282 282 281 281 281 281 281 281 280 279 278 278 277 277 277 277 277 277 277 277 277 277 277 277 277
272 272 273 274 274 275 275 275 276 276 277 277 278 278 278 277 277 277 278 279 281 282 282 282 282 283 283 284 286 287 287 287 287 287 288 287 287 288 288 287 287 287 287 287 286 286 286 285 285 285 285 285 285 285 285 285 285 284 283 283 282 282 281 281 280 281 281 281 280 280 279 278 278 277 277 277 277 277 277 277 277 277 277 277 277
271 272 272 273 273 274 274 274 274 275 276 277 277 277 276 275 275 275 276 277 279 280 281 281 282 282 283 284 286 286 287 287 287 287 287 287 287 287 287 287 287 287 287 287 286 286 286 285 285 284 284 284 285 285 285 285 284 284 283 282 282 282 281 280 280 280 280 280 280 280 280 279 278 278 278 278 277 277 277 277 277 277 277 277 277
271 270 270 270 271 272 272 273 273 275 275 276 277 276 275 274 274 275 276 277 278 279 280 281 281 282 283 284 286 286 286 287 287 287 287 287 287 287 287 287 287 287 287 287 286 286 285 285 285 284 284 284 284 284 284 284 284 284 283 282 282 281 281 281 280 280 280 280 280 280 280 279 279 278 278 278 278 278 278 278 277 277 277 277 277
269 269 269 269 270 271 271 272 273 274 275 275 275 275 274 274 274 274 275 277 278 279 280 281 282 282 284 285 286 286 286 287 287 287 287 287 287 287 287 287 287 287 287 287 286 286 285 285 284 284 284 284 284 284 284 284 284 284 283 282 282 281 281 281 281 281 280 280 280 280 280 280 279 278 278 278 278 278 278 278 278 277 277 277 277
268 268 269 269 270 271 271 273 273 273 273 273 273 273 273 273 273 274 275 277 278 279 280 282 283 284 285 286 286 287 287 287 287 287 287 287 287 287 287 287 287 287 287 287 287 286 285 285 284 284 284 284 284 284 283 283 283 283 283 282 281 281 281 281 281 280 280 280 280 280 280 280 279 279 279 279 278 278 278 278 277 277 277 277 276
268 268 269 269 270 271 271 272 271 271 271 271 272 272 273 273 273 273 275 277 279 280 281 282 284 285 286 286 286 287 286 286 286 287 287 287 287 287 287 287 287 287 287 287 287 286 286 285 285 284 284 284 283 283 283 283 283 282 282 282 281 281 281 281 280 280 280 280 280 280 280 280 280 279 279 279 279 279 278 278 277 277 277 276 276
267 268 268 269 269 270 270 270 270 270 270 271 271 272 272 272 272 273 274 276 278 280 281 282 284 285 286 286 286 286 286 286 286 286 287 287 287 287 287 287 287 287 287 287 287 286 286 285 285 284 284 283 283 283 283 282 282 282 282 281 281 280 280 280 280 280 280 280 280 280 280 279 279 279 279 279 279 278 278 277 277 277 276 275 275
267 267 268 268 268 269 270 269 269 269 270 270 271 271 271 272 272 272 274 275 277 279 281 282 283 285 286 286 286 286 286 286 286 286 286 287 287 287 287 287 287 287 287 287 287 286 286 285 285 284 284 283 283 283 282 282 281 281 281 280 280 280 280 280 280 280 280 280 279 279 279 279 279 279 279 279 278 278 277 276 276 276 275 274 274
267 267 267 267 268 269 269 269 268 269 269 270 270 270 270 271 271 272 273 275 277 279 280 282 283 285 286 286 286 286 286 285 286 286 286 286 287 287 287 286 286 286 286 286 286 286 286 285 285 284 284 283 283 282 282 282 281 281 280 280 280 280 279 280 280 280 280 280 279 279 279 279 279 279 279 278 278 278 277 276 276 275 274 273 273
266 267 267 267 268 268 268 268 268 268 269 269 269 270 270 270 271 272 273 275 277 279 280 282 284 285 286 286 286 286 286 286 286 286 286 286 287 287 287 286 286 286 286 286 285 285 285 285 284 284 283 283 282 282 282 282 281 280 280 279 279 279 279 279 280 280 280 279 279 279 279 279 278 278 278 277 277 277 277 276 276 275 274 273 272
266 266 267 267 268 268 267 267 267 268 268 269 269 269 270 270 271 272 274 276 277 279 281 283 284 285 286 286 286 286 286 286 286 286 286 286 286 287 287 287 286 286 285 285 284 284 284 284 284 283 283 282 282 282 282 282 281 280 280 279 279 279 279 279 279 280 279 278 278 278 278 278 277 277 277 276 276 276 276 275 275 275 274 273 272
266 266 266 267 267 267 267 267 267 267 268 268 268 269 269 270 271 273 275 277 278 280 281 283 285 285 285 285 286 286 286 286 285 285 285 285 285 285 286 286 286 285 284 284 283 282 282 282 282 283 282 282 282 282 282 282 281 280 280 279 279 279 278 279 279 279 278 277 277 277 277 277 277 276 276 275 275 275 275 275 275 274 273 273 272
266 266 266 266 266 266 266 267 267 267 267 268 268 269 269 271 273 275 277 279 280 281 283 284 285 285 286 286 286 285 285 284 283 283 283 283 283 284 284 285 285 285 284 282 282 281 281 281 282 282 282 282 281 282 282 282 281 280 279 279 279 278 278 278 279 278 277 276 276 275 275 275 275 275 275 275 275 275 275 274 274 273 272 271 271
266 266 266 266 266 266 266 266 267 267 267 268 268 269 270 272 274 275 277 280 282 284 285 285 286 286 285 285 285 284 283 282 282 282 282 282 282 282 283 283 284 284 283 282 281 281 281 281 281 281 281 281 281 282 282 282 280 279 279 279 279 278 278 278 277 276 275 275 275 274 273 273 273 274 274 274 274 274 274 273 271 271 270 270 270
265 265 266 266 266 266 266 266 266 267 267 268 269 270 271 272 274 275 277 279 282 284 285 285 285 285 285 284 283 283 282 281 281 281 281 281 281 281 282 283 283 283 282 281 281 280 280 280 280 281 281 281 281 281 282 281 280 279 280 279 279 278 277 276 276 275 275 274 274 273 273 272 273 273 274 274 273 272 271 270 270 270 270 270 269
265 265 265 266 266 266 266 266 267 267 268 268 269 270 271 272 273 274 276 278 280 283 284 283 283 284 283 283 282 282 282 281 281 280 280 280 281 281 282 282 283 283 282 281 281 280 280 280 280 281 281 281 281 282 282 281 280 280 280 279 278 277 276 275 275 275 274 274 273 273 272 272 272 273 273 272 271 270 269 269 270 270 270 270 270
265 265 265 265 265 266 266 266 267 268 268 268 269 270 271 272 273 274 275 277 278 281 282 282 282 282 282 282 282 282 281 281 280 280 279 280 280 281 281 283 283 282 281 280 280 280 280 280 280 281 281 281 281 281 281 280 280 280 279 278 277 276 276 275 275 274 274 273 273 272 271 271 271 271 270 270 269 269 269 269 270 270 270 270 270
265 265 265 265 266 266 266 267 267 268 268 268 269 269 270 271 272 273 275 276 277 279 281 282 281 281 281 281 281 281 281 280 280 279 279 280 281 281 282 283 282 281 280 280 280 280 280 280 280 281 281 281 281 281 280 280 279 278 277 276 276 275 275 275 274 274 273 273 272 271 270 270 270 269 269 268 268 269 269 269 270 270 269 269 269
265 265 265 265 266 266 266 267 267 268 268 268 269 269 269 270 271 272 274 275 276 278 280 281 281 281 280 279 279 280 281 280 280 279 279 280 281 282 282 281 280 280 280 279 279 280 280 280 280 281 280 280 279 278 278 277 276 275 275 275 275 274 274 274 274 273 272 272 271 270 269 269 268 268 268 268 269 269 269 269 270 269 269 269 268
265 265 265 265 266 266 266 267 267 267 268 268 268 269 269 270 271 272 274 275 276 278 280 280 280 279 279 278 278 279 280 280 279 279 279 280 281 282 281 280 279 279 279 279 279 280 279 279 279 278 278 277 276 275 274 274 274 274 274 274 273 273 273 273 273 272 271 271 270 269 268 268 268 268 268 269 269 269 269 269 269 269 268 268 267
265 265 265 265 266 266 266 267 267 267 268 268 268 269 270 271 272 273 274 275 277 278 279 280 279 279 278 278 278 279 280 280 279 279 279 280 282 281 280 280 280 279 279 279 279 278 277 277 276 276 275 275 274 273 272 272 272 272 272 272 272 272 272 272 271 271 271 270 269 269 268 268 268 268 269 269 268 268 268 268 268 268 267 267 266
265 265 265 265 266 266 267 267 267 267 268 268 268 269 270 271 272 273 274 275 277 278 279 279 279 279 279 279 279 280 280 280 279 280 280 281 282 281 280 280 280 279 279 279 278 277 276 275 275 274 274 274 273 272 272 271 271 270 270 270 271 271 271 271 270 270 269 269 269 269 269 269 269 269 269 268 268 267 267 267 267 267 266 266 266
265 265 265 266 266 266 267 267 267 268 268 268 269 269 270 271 271 273 274 275 277 278 279 279 279 280 281 281 281 280 280 280 280 280 281 281 282 281 281 281 280 279 279 278 277 276 275 274 274 273 273 272 272 272 271 271 270 270 270 269 269 270 270 270 269 269 269 268 268 269 269 269 269 269 269 268 267 267 266 266 266 266 266 266 266
265 265 265 266 266 266 267 267 268 268 268 268 269 269 270 271 271 272 273 274 276 278 279 278 279 280 281 281 281 280 280 280 280 281 281 282 282 281 281 280 279 278 278 277 276 275 274 274 273 273 272 272 272 271 271 271 270 270 270 269 268 268 269 268 268 268 269 269 269 269 269 269 269 268 268 267 267 267 266 266 266 265 265 265 265
265 265 266 266 266 266 267 267 268 268 268 269 269 270 270 271 271 272 273 274 276 277 278 278 279 280 281 281 281 281 281 281 281 281 282 282 282 281 280 279 278 278 277 276 275 274 274 273 273 273 272 272 272 271 270 270 270 270 269 269 268 268 267 267 268 268 269 269 269 269 269 269 269 268 268 267 266 266 266 265 265 265 265 265 265
265 265 266 266 266 267 267 267 268 268 269 269 269 270 271 271 272 272 273 274 276 277 277 277 278 280 281 281 281 281 281 281 281 282 282 282 281 280 279 278 277 276 276 275 275 274 274 273 273 272 272 272 271 271 270 270 270 270 270 268 267 267 266 267 268 268 269 269 269 269 268 268 268 269 268 267 266 266 265 265 265 265 265 265 265
265 265 266 266 266 267 267 268 268 269 269 270 270 271 271 271 272 273 273 274 276 277 277 277 278 280 280 281 281 281 281 281 282 282 282 281 280 279 278 276 276 276 275 275 275 274 274 273 273 272 272 271 271 271 270 270 270 270 270 269 267 267 267 267 268 268 269 269 269 268 268 268 268 268 268 267 266 266 266 266 265 265 265 265 264
265 265 266 266 267 267 268 268 269 269 270 270 270 271 271 272 272 273 274 275 277 277 276 277 278 279 279 280 280 281 281 281 281 281 280 280 279 278 277 276 275 275 275 275 275 274 273 273 272 272 272 271 271 271 270 270 270 270 269 269 268 267 267 268 268 269 269 268 268 268 268 268 268 268 268 267 266 266 266 266 265 265 265 264 264
265 266 266 266 267 268 268 269 269 270 270 270 271 271 272 272 273 273 274 275 277 277 276 276 277 278 278 279 280 280 280 280 279 279 278 278 278 277 276 275 275 275 274 275 274 274 273 272 272 272 272 271 271 271 270 270 270 270 269 268 267 267 267 268 268 268 268 268 268 268 268 268 268 268 268 268 267 266 266 266 265 265 264 264 263
265 266 266 267 267 268 269 269 270 270 270 271 271 272 272 272 273 274 275 276 276 276 276 276 277 277 278 279 279 279 279 278 277 277 276 276 276 276 275 275 275 274 274 274 274 274 273 272 272 272 271 271 271 271 271 271 271 271 269 267 266 266 267 268 268 268 268 268 268 268 268 268 268 268 268 267 267 266 266 265 265 265 264 264 263
265 266 266 267 268 268 269 269 270 270 271 271 272 272 272 273 274 274 275 276 276 276 276 276 277 277 278 279 278 278 277 277 276 276 275 275 275 275 275 274 274 274 274 274 273 273 273 272 272 272 272 272 272 272 272 273 272 270 268 267 267 267 267 268 268 268 268 268 268 267 267 268 268 267 267 266 266 266 266 265 265 264 264 263 263
266 266 266 267 268 268 269 269 270 270 271 272 272 273 273 274 275 275 275 276 275 275 275 276 276 277 278 279 278 277 276 276 276 275 275 275 274 274 274 274 274 273 273 273 273 273 273 272 272 272 272 272 272 272 273 272 270 268 267 267 267 268 268 268 268 268 268 268 267 268 268 267 267 267 266 266 265 265 265 265 264 264 263 263 262
266 266 267 267 268 268 269 270 270 271 271 272 272 273 274 275 275 275 275 275 275 275 275 276 276 276 277 277 277 276 276 276 275 275 274 274 274 273 273 273 272 272 272 272 272 273 272 272 272 272 272 272 272 273 272 270 268 267 267 268 268 268 268 267 267 268 268 268 268 267 267 267 266 266 266 266 265 265 265 264 264 263 263 262 262
266 266 267 267 268 268 269 270 270 271 271 272 273 274 275 275 275 275 275 275 274 274 275 275 275 275 275 275 275 275 274 274 274 274 273 273 272 272 271 271 271 271 271 271 271 272 272 271 271 271 271 271 271 272 271 270 269 268 268 268 268 268 268 268 268 268 268 268 267 267 266 266 266 266 265 265 265 265 264 264 263 263 263 262 262
266 266 267 268 268 269 269 270 270 271 271 272 272 274 275 274 274 274 274 274 274 274 275 275 274 274 274 273 273 273 272 272 272 272 272 271 271 271 270 270 270 270 270 270 270 270 270 270 270 270 269 269 269 269 269 269 269 269 269 269 269 269 269 269 269 268 268 268 267 267 266 266 266 265 265 265 264 264 264 263 263 263 263 263 262
266 267 267 268 268 268 269 269 270 270 271 271 272 273 274 274 274 274 274 273 274 274 274 274 273 273 272 272 271 271 270 270 270 270 270 270 270 270 270 270 270 270 270 269 269 270 270 270 270 270 270 269 268 268 268 268 268 268 269 269 270 270 270 270 269 269 268 267 267 267 266 266 265 265 265 264 264 264 264 263 263 263 263 262 262
266 267 267 267 268 268 269 269 270 270 271 271 272 273 274 274 274 273 273 273 273 273 273 273 272 271 271 271 270 269 269 269 268 268 268 268 268 269 269 269 270 270 270 269 270 271 271 271 272 272 271 269 269 268 268 268 268 268 268 269 270 270 270 269 269 268 268 267 267 267 266 265 265 265 265 264 264 264 264 263 263 263 262 262 262
266 266 267 267 267 268 268 269 269 270 270 271 271 272 273 273 273 273 273 273 273 273 272 272 271 271 270 269 269 268 268 267 267 267 267 267 268 268 269 269 271 271 271 271 271 272 272 272 272 271 271 270 269 268 268 268 268 268 268 269 269 269 268 268 268 267 267 267 266 266 266 265 265 265 264 264 264 264 264 263 263 262 262 262 261
265 266 266 266 267 268 268 268 269 269 270 270 271 272 272 273 273 272 273 272 272 272 271 271 270 270 269 269 269 268 267 266 266 266 266 267 267 268 269 270 271 272 272 272 272 273 273 272 271 271 270 269 269 268 268 268 268 268 268 268 268 268 268 268 267 267 266 266 266 266 265 265 265 264 264 264 264 264 263 263 263 263 262 262 261
265 265 266 266 267 267 267 268 268 269 269 270 270 271 272 272 272 272 272 272 271 271 270 270 269 269 269 268 268 268 267 266 266 265 266 266 267 268 270 271 272 272 273 272 272 272 272 272 271 270 269 269 268 268 268 268 268 268 268 268 268 268 267 267 267 266 266 266 266 265 265 265 265 264 264 264 264 263 263 263 263 263 262 261 261
264 265 265 266 266 267 267 267 268 268 269 269 270 271 271 271 271 271 271 271 271 270 269 269 268 268 268 268 267 267 267 266 266 266 266 267 267 269 270 271 271 272 272 272 272 271 271 270 270 269 268 268 268 268 267 267 268 268 268 268 267 267 267 267 266 266 266 265 265 265 265 265 265 264 264 264 264 263 263 263 263 262 262 261 261
264 264 265 265 265 266 266 266 267 267 268 268 269 270 270 270 271 270 270 270 269 269 269 268 268 268 267 267 267 267 267 267 267 267 268 268 268 269 270 270 270 270 270 271 270 270 269 269 268 268 268 268 268 268 268 268 268 268 267 267 267 267 266 266 266 266 265 265 265 265 265 265 264 264 264 264 263 263 263 263 262 262 261 261 261
Wind_Speed
30 32 35 36 35 34 35 39 43 40 36 34 33 31 31 31 31 30 29 28 26 24 24 26 26 26 26 27 27 27 26 25 25 26 26 26 26 26 25 25 26 27 27 27 27 27 28 28 29 29 28 27 27 26 25 27 29 28 29 29 30 30 29 22 11 4 10 21 29 30 30 32 32 33 31 29 28 28 27 27 27 26 25 23 23
30 33 36 36 35 35 38 43 45 41 36 33 32 32 32 32 31 30 28 25 23 24 24 25 26 27 27 28 27 27 27 26 25 25 26 26 26 25 24 23 25 26 25 25 26 26 27 28 30 30 29 28 28 28 26 27 28 29 30 30 30 30 30 26 17 7 7 15 24 27 30 32 32 32 32 30 29 29 28 27 27 26 25 24 23
32 35 35 34 33 34 38 41 43 41 37 33 31 30 30 30 30 30 27 24 23 24 24 24 25 26 28 28 28 27 26 26 26 25 25 25 25 25 25 24 24 25 25 26 26 26 26 26 28 29 28 28 29 29 28 28 29 29 30 30 30 30 31 30 22 13 10 14 22 27 29 31 31 31 32 31 29 29 28 27 26 25 24 23 22
34 35 33 31 31 33 37 39 39 40 36 32 30 30 29 27 26 26 25 22 21 22 23 25 27 28 28 29 28 28 27 26 26 25 25 25 25 25 25 24 24 25 26 26 26 26 26 27 27 28 27 27 27 28 28 29 30 30 30 30 31 30 30 31 28 21 17 15 20 27 30 30 29 29 30 28 26 27 26 25 24 23 22 21 20
36 34 29 29 33 38 41 39 36 37 34 30 27 27 26 23 22 23 23 22 23 25 27 29 30 31 31 30 29 29 29 28 28 28 27 26 26 25 24 24 24 25 26 26 26 26 26 28 28 27 26 26 27 27 27 28 29 30 30 30 31 31 30 31 30 26 23 19 20 24 28 29 27 26 29 29 25 24 24 23 23 21 20 20 19
35 29 28 33 40 44 41 35 32 33 32 28 26 24 22 22 23 25 27 28 29 30 30 31 32 32 32 31 30 29 29 29 28 28 27 26 25 25 25 25 25 25 25 25 26 26 26 28 28 27 26 27 28 27 27 28 29 29 30 31 31 30 29 30 30 27 25 23 24 25 26 27 25 24 27 29 28 26 24 22 22 22 22 22 22
31 29 32 39 42 40 35 31 30 31 29 27 26 24 23 24 25 26 27 28 29 30 32 33 32 31 32 32 30 28 28 28 27 27 27 26 25 25 25 25 25 25 25 24 25 25 26 27 27 27 26 28 30 30 28 28 29 30 31 31 30 30 29 29 30 28 25 22 23 25 26 26 25 25 26 27 26 24 23 21 21 23 24 24 23
32 35 38 39 37 34 30 29 28 27 26 25 24 24 24 25 26 27 28 28 28 29 29 28 27 27 28 29 28 27 26 25 24 24 25 26 27 27 27 26 26 26 27 27 26 26 26 26 27 28 28 29 31 32 32 31 30 30 32 31 30 30 29 29 28 27 25 22 20 22 23 24 24 24 25 26 22 21 23 23 21 22 23 23 22
32 37 39 35 31 29 26 26 27 26 24 23 23 23 23 23 25 27 29 30 29 28 27 25 25 25 26 28 29 28 26 24 23 21 22 23 26 28 28 27 28 28 27 27 27 27 27 27 27 28 30 31 33 33 34 34 33 32 32 32 31 30 29 28 27 26 24 21 19 20 20 20 22 23 24 27 25 23 25 24 19 18 20 19 18
31 34 34 30 28 26 24 25 28 28 25 24 23 22 21 23 27 29 30 30 29 27 26 27 27 28 28 29 29 29 27 25 23 22 23 24 25 26 27 27 27 27 27 26 26 27 28 28 28 29 29 31 33 34 35 35 35 35 34 35 34 33 30 28 27 27 25 21 20 20 17 16 22 26 25 26 26 24 23 23 20 19 17 15 13
30 28 29 31 31 29 26 28 30 28 27 26 24 21 22 26 31 33 33 31 29 27 26 26 28 29 29 28 29 29 27 24 23 23 25 27 27 26 25 26 27 27 27 27 27 27 27 27 27 27 28 29 32 34 35 35 36 37 36 36 37 37 35 31 28 28 26 22 22 23 19 17 22 27 25 23 24 23 22 23 22 21 18 13 9
26 27 33 37 35 30 28 29 29 27 27 26 23 21 24 28 31 32 30 29 29 28 27 27 28 29 28 27 28 29 26 24 23 25 27 29 29 27 27 27 27 27 27 28 28 26 25 25 26 26 27 28 30 32 34 35 37 39 39 38 39 40 41 39 35 32 29 25 22 23 23 21 22 26 27 25 24 22 22 22 22 22 20 16 12
27 30 34 35 32 29 28 28 26 25 25 25 24 25 28 30 29 28 28 28 28 28 28 29 29 29 28 27 28 28 26 23 23 26 27 28 28 27 28 28 27 27 28 28 28 27 26 26 25 26 27 27 27 30 32 33 35 39 40 40 40 41 42 43 41 39 36 31 26 25 27 25 24 26 29 28 25 23 22 22 23 22 20 17 14
31 32 32 30 28 26 25 25 25 25 27 27 28 29 29 29 27 26 27 27 27 26 26 27 27 27 26 25 24 23 23 22 23 24 25 26 27 27 29 29 27 28 29 29 28 28 28 27 26 26 26 26 27 29 31 31 32 34 37 37 38 39 40 40 40 39 37 35 32 29 29 28 27 27 29 29 28 26 25 25 24 22 19 15 13
32 31 29 27 27 25 25 25 25 27 30 30 30 30 28 27 27 26 26 26 25 25 24 25 25 24 23 22 21 21 22 22 21 22 23 25 26 27 28 29 28 28 28 29 30 30 30 30 28 27 26 26 28 29 31 31 30 31 33 34 35 36 37 38 38 37 35 34 32 30 28 28 28 27 28 29 27 27 27 27 24 20 17 13 12
29 28 27 27 27 26 26 26 27 30 31 31 30 29 28 28 28 27 26 26 25 25 24 23 23 22 21 20 21 22 23 22 20 21 22 23 24 25 26 26 26 26 26 27 28 29 30 30 28 28 27 27 29 30 31 32 31 30 31 32 32 32 34 35 35 34 33 32 30 27 26 27 26 26 27 28 27 26 25 23 20 18 14 10 9
27 27 27 27 28 28 26 27 29 31 31 29 29 29 29 29 29 27 25 25 24 23 22 22 22 21 20 19 19 21 22 22 21 22 23 24 25 26 25 25 25 25 25 25 24 25 27 28 29 29 29 30 30 29 29 31 31 30 29 29 28 28 29 31 30 29 29 29 28 26 25 26 26 25 26 27 28 27 26 22 18 17 13 7 6
27 28 28 28 29 27 26 28 31 31 30 29 29 30 30 30 29 26 24 24 24 23 22 22 23 21 19 20 21 22 23 24 24 24 24 25 26 26 25 24 24 24 24 24 24 25 26 27 29 30 30 31 31 29 28 31 32 31 29 28 27 26 26 28 28 26 25 24 23 23 23 24 25 25 25 26 27 27 26 23 19 17 14 10 9
28 28 29 29 28 27 28 30 30 28 28 29 29 30 31 31 30 27 24 23 23 23 22 21 22 21 21 22 22 23 25 26 27 27 28 28 29 28 25 23 23 24 23 23 23 25 26 27 28 30 31 32 30 28 29 32 33 32 30 27 26 25 25 28 29 27 26 25 24 25 24 23 24 24 22 22 23 24 23 20 18 17 15 15 13
29 29 29 28 27 28 29 31 30 28 29 31 32 33 32 31 31 30 28 25 22 22 23 22 22 23 23 22 23 25 26 28 28 28 28 28 29 29 26 24 22 21 21 21 21 22 23 24 25 27 28 29 28 27 29 33 33 32 30 28 26 25 26 29 29 28 27 26 27 28 27 25 25 24 22 21 21 20 18 17 16 16 15 16 15
29 29 28 28 29 30 31 31 31 30 30 31 33 34 34 32 31 32 32 31 26 23 24 23 22 24 25 24 24 23 23 23 23 22 21 21 22 21 20 20 19 18 19 20 20 20 20 22 24 24 25 26 26 26 29 32 33 32 31 29 27 28 29 30 29 28 27 27 28 28 27 25 26 26 25 22 20 18 17 16 16 16 15 15 15
28 28 29 29 30 31 32 31 31 31 32 32 32 34 34 31 27 27 29 31 28 25 23 23 23 23 23 21 19 17 18 20 20 19 17 17 17 17 18 18 17 18 18 17 17 19 20 21 24 24 24 24 25 26 28 30 31 30 29 27 26 28 31 31 28 28 28 29 29 28 27 27 27 26 24 21 19 17 16 16 15 15 14 14 14
28 29 30 30 31 32 32 32 31 32 33 33 31 32 32 28 26 25 24 24 24 21 18 18 18 16 16 16 15 17 19 20 19 18 17 16 16 17 18 19 18 18 18 18 18 19 20 21 23 23 23 23 23 24 26 27 30 29 28 26 26 29 31 29 28 29 29 29 27 25 25 25 25 24 22 20 18 16 15 14 13 12 11 11 12
29 30 30 30 31 32 31 32 32 31 31 30 28 28 27 26 25 24 22 21 20 17 15 16 16 13 13 15 16 17 18 17 18 18 17 16 16 16 16 17 17 17 18 19 19 20 21 21 22 21 21 21 21 22 23 26 29 28 26 26 28 30 31 29 29 29 27 25 24 22 21 22 22 22 20 18 16 14 12 11 10 8 8 8 9
31 30 30 31 31 32 32 32 31 29 28 27 25 25 25 24 23 22 21 20 19 16 15 16 16 14 14 14 15 16 15 15 17 17 16 15 14 12 13 14 13 16 19 19 20 21 20 19 19 20 20 20 20 20 21 26 28 26 25 27 29 32 31 29 29 28 24 22 21 20 19 20 20 18 16 14 13 12 10 9 8 6 6 6 6
31 30 31 31 31 31 31 30 28 27 26 25 24 22 22 22 22 21 20 18 18 17 15 15 15 14 13 13 13 14 13 13 15 16 14 12 11 10 11 10 11 16 17 16 17 17 16 16 18 19 19 18 18 19 22 27 26 24 27 30 31 32 31 29 28 26 22 20 20 20 20 19 17 16 14 12 11 11 9 8 7 6 6 5 4
31 30 31 32 31 30 29 27 27 26 25 25 24 22 22 21 20 20 19 18 18 18 16 15 15 12 10 10 12 14 13 11 11 12 11 10 10 9 7 9 13 14 13 14 14 14 14 16 17 18 17 16 16 20 25 27 26 26 29 31 30 30 29 29 28 25 22 22 22 21 21 19 18 17 15 13 12 11 9 9 8 7 6 5 4
30 31 31 30 29 29 28 27 27 26 26 26 25 24 25 24 22 21 21 19 19 19 17 17 15 11 8 8 11 13 12 8 8 9 9 9 7 2 11 15 16 16 16 17 16 15 15 17 17 18 18 18 20 22 25 27 28 29 29 28 27 27 26 26 25 24 23 24 24 23 21 20 18 17 16 14 13 12 10 10 9 8 7 5 5
31 31 30 29 28 28 27 27 27 26 27 28 27 26 26 24 23 25 25 23 22 23 22 20 16 13 12 10 11 11 9 6 7 7 6 7 2 11 19 18 16 18 18 19 19 18 17 18 18 18 20 22 23 23 25 27 28 27 27 27 26 25 25 25 25 24 24 25 25 24 24 22 20 19 18 16 14 12 11 10 9 8 8 7 5
30 29 29 28 27 27 27 27 27 26 26 26 28 29 29 25 22 22 23 26 26 24 22 19 17 16 15 14 13 12 9 7 7 4 3 3 5 15 18 16 18 19 19 20 21 20 19 18 19 19 21 22 22 22 24 26 25 24 24 25 26 25 25 25 25 25 25 25 25 26 25 24 22 20 19 17 15 13 11 10 10 9 8 7 5
28 28 28 27 27 26 26 26 27 26 26 26 26 28 30 31 27 19 17 22 25 23 20 17 17 16 14 13 13 10 6 6 4 1 1 3 12 17 17 17 19 20 21 22 21 19 18 18 17 18 20 21 21 21 22 24 24 24 23 23 23 24 25 24 24 25 25 25 26 25 24 24 22 21 19 18 16 14 12 10 10 9 8 6 3
29 28 28 27 26 25 24 25 25 25 25 25 25 24 25 28 29 28 25 23 21 20 19 18 19 19 15 10 9 6 4 4 2 1 2 7 15 18 17 19 20 19 21 23 20 17 17 17 16 17 19 19 20 22 23 24 25 25 24 22 21 22 24 24 24 25 26 26 26 25 23 23 22 20 19 18 16 14 12 10 9 8 6 5 3
31 29 27 27 26 25 24 23 23 23 23 23 24 23 21 20 21 27 33 31 26 23 22 20 21 21 17 13 11 8 5 3 2 2 4 11 17 18 18 19 19 18 21 22 19 16 17 18 17 17 19 19 20 21 22 23 24 24 24 23 21 21 22 24 24 25 25 25 25 24 23 22 21 20 19 17 16 14 12 10 9 8 7 5 3
31 28 27 26 26 25 24 23 23 23 23 23 22 21 21 20 19 20 23 24 23 23 24 23 23 21 17 15 13 10 7 5 4 3 6 14 20 20 19 19 16 15 18 20 20 18 18 18 17 18 19 21 21 21 21 22 23 24 23 22 22 21 22 23 23 24 24 24 24 23 23 22 21 21 20 17 15 14 13 11 9 8 7 5 2
31 28 27 27 26 24 24 24 23 23 23 23 22 20 20 21 21 18 17 16 15 16 19 22 23 21 19 17 14 11 8 7 5 4 10 19 23 22 21 19 15 14 15 16 17 18 18 19 19 19 20 21 21 22 23 22 23 24 23 23 23 24 24 24 24 24 24 23 23 23 22 21 20 19 19 18 15 14 12 11 9 7 6 4 3
31 28 28 28 27 26 26 25 24 23 23 22 22 21 21 20 19 18 18 17 15 14 17 20 21 21 21 20 17 13 11 8 6 7 15 22 23 20 18 16 14 14 15 15 15 17 17 19 20 21 22 22 21 22 23 22 23 23 23 23 25 25 25 24 24 23 23 22 22 22 21 21 19 18 17 16 14 13 12 10 8 6 5 4 3
30 28 28 29 29 27 26 25 24 24 24 22 21 21 20 20 19 18 18 18 15 14 15 17 18 18 20 20 18 16 16 15 15 16 20 21 18 17 16 16 14 15 16 16 17 17 17 19 21 22 22 23 23 23 23 22 22 21 21 22 24 25 25 24 23 23 23 22 22 21 20 19 18 16 15 15 14 12 10 9 7 6 4 3 1
29 29 30 31 29 27 25 25 25 25 23 22 21 20 19 19 18 17 17 16 15 14 15 15 15 16 17 17 15 13 14 16 17 18 18 16 15 16 16 16 15 16 16 16 17 17 18 19 21 21 22 23 23 23 22 21 20 19 19 21 23 23 23 23 22 22 22 22 21 20 19 18 17 15 13 12 12 11 9 8 7 5 4 3 2
31 32 32 31 28 25 24 24 24 24 23 22 21 20 18 17 16 16 16 15 13 14 15 15 15 16 16 14 11 10 12 14 14 14 15 15 15 15 15 15 15 16 15 16 16 17 18 19 19 20 21 22 22 22 21 20 18 18 20 22 23 22 22 23 22 21 21 21 20 19 18 16 15 13 11 10 10 10 9 8 6 4 4 3 2
32 32 32 31 27 26 25 24 23 22 22 22 21 20 18 16 16 16 15 13 12 13 14 13 14 17 17 13 11 11 13 14 13 13 14 14 14 14 14 14 15 15 15 15 16 17 18 18 18 19 19 20 21 21 20 19 18 19 22 24 24 23 23 23 22 21 20 20 19 18 17 15 13 12 11 10 9 8 7 6 5 3 2 0 2
32 31 31 30 27 27 26 24 23 23 23 22 21 20 18 17 17 16 14 12 12 13 13 12 14 18 18 15 13 14 15 14 13 14 15 15 15 14 13 13 13 13 14 15 15 17 18 18 18 18 18 19 20 20 19 18 19 21 23 23 23 23 22 22 21 20 20 19 18 16 15 13 12 12 11 10 10 8 7 5 4 2 1 2 3
31 30 28 28 27 27 25 24 24 25 23 22 21 20 18 17 16 14 12 12 12 13 13 12 14 16 18 16 15 15 16 16 15 15 15 15 16 16 14 13 12 11 12 13 14 16 18 18 18 18 18 18 19 19 19 19 21 22 23 23 22 22 22 21 20 19 18 17 15 14 13 13 12 11 11 10 9 8 6 4 3 2 1 2 3
31 28 27 26 26 25 24 24 25 24 23 23 23 21 18 17 16 15 14 13 13 13 13 13 14 15 16 16 15 16 17 17 16 16 16 16 16 16 15 14 13 11 11 12 13 14 16 17 17 17 17 17 18 17 18 18 19 20 22 22 21 21 21 21 20 18 16 15 14 13 12 12 12 11 10 10 8 7 6 4 2 1 1 3 5
29 27 26 26 25 25 24 24 24 23 23 24 23 20 18 18 17 16 15 14 14 14 14 13 14 15 15 15 16 16 17 17 17 16 16 16 16 15 14 13 12 12 12 12 11 12 14 16 17 17 16 16 15 15 15 15 16 17 19 20 20 19 19 18 17 16 15 15 14 13 12 12 12 11 10 9 8 7 5 3 1 2 3 5 8
27 26 26 25 25 24 24 24 24 23 24 24 22 19 18 18 17 16 16 16 15 15 15 14 15 15 15 15 16 16 16 16 16 16 16 16 15 14 13 11 11 11 11 11 10 10 11 13 15 15 15 14 13 13 12 12 12 13 14 15 15 14 14 14 14 14 13 12 12 12 12 12 11 11 10 8 7 6 4 3 3 4 5 7 9
27 26 26 25 25 24 24 24 24 24 23 23 21 19 18 19 18 17 17 17 16 15 15 15 15 15 15 15 15 15 15 16 16 16 15 15 15 14 13 12 12 12 11 11 10 10 11 11 11 11 11 12 11 10 10 10 10 11 11 11 9 9 10 10 11 11 10 10 10 11 11 11 11 10 9 8 6 5 3 3 3 5 7 8 10
26 25 24 24 24 23 23 23 23 22 22 22 21 20 18 18 18 17 17 17 17 16 15 15 16 16 16 16 16 15 15 15 16 16 15 15 14 14 13 13 13 13 12 12 12 11 11 10 9 9 10 10 10 10 9 9 8 9 9 8 7 7 7 8 9 9 9 9 9 9 10 10 9 8 7 6 5 4 3 3 4 6 8 9 10
25 25 24 23 23 22 23 23 22 21 22 22 21 20 19 18 17 18 17 17 17 16 16 16 16 15 15 16 16 15 15 15 16 16 16 15 14 14 14 14 14 13 12 12 12 11 10 10 9 9 9 10 9 9 9 9 8 9 9 8 8 7 7 9 9 9 9 9 8 8 8 8 7 7 6 5 4 4 4 5 6 8 9 10 10
25 25 24 23 22 22 23 23 21 21 22 21 20 19 18 17 17 17 17 17 16 16 16 16 16 15 16 16 16 16 16 17 18 17 16 15 14 14 14 14 14 13 12 11 11 10 10 10 10 10 10 10 10 10 10 10 10 10 9 9 8 8 8 8 8 8 8 8 7 7 7 6 5 5 5 4 4 4 5 6 8 10 10 10 11
25 25 24 23 23 23 23 22 21 21 22 21 19 18 18 17 17 18 17 17 16 16 16 16 16 16 17 17 17 17 17 18 17 16 16 15 15 14 14 14 13 12 11 11 12 12 12 12 12 12 12 12 11 11 12 11 10 9 8 8 8 8 8 8 8 8 8 7 7 6 6 5 4 4 4 3 4 5 7 8 9 10 10 10 11
25 24 23 23 23 23 23 22 21 22 22 21 19 19 18 18 17 17 17 16 16 16 16 16 16 16 17 18 18 18 18 18 17 16 15 15 14 14 14 13 12 12 12 12 13 14 14 14 14 13 13 13 12 12 11 10 10 9 8 8 8 8 8 8 8 7 7 6 5 5 4 4 3 3 3 4 6 7 9 9 9 10 10 11 11
Wind_Direction
327 325 322 319 315 313 316 319 316 306 297 298 296 293 296 294 287 283 280 276 275 273 270 270 268 267 266 265 262 258 253 250 247 245 244 246 247 246 243 238 234 234 234 233 233 231 231 232 231 231 228 227 228 229 225 221 218 215 212 211 212 214 213 213 215 174 183 198 194 193 200 200 199 201 202 203 204 206 211 217 221 223 223 222 221
323 321 317 313 310 312 314 315 314 305 294 292 293 291 292 292 287 281 275 274 280 281 276 271 266 264 264 263 262 258 254 250 247 244 240 240 242 243 242 238 235 234 232 231 230 230 230 231 232 231 228 226 225 226 226 221 217 214 212 211 214 216 216 215 209 179 157 180 182 184 192 194 195 197 198 199 200 202 208 213 217 220 222 223 226
323 319 315 311 310 312 312 311 310 305 294 288 289 289 291 293 288 277 273 278 282 281 280 279 275 268 263 260 259 256 254 253 250 245 240 238 238 238 239 237 237 237 235 234 232 230 230 231 231 231 228 225 224 223 223 220 216 214 213 212 214 217 218 216 209 186 162 170 176 178 184 190 193 195 197 199 200 201 206 211 214 219 222 226 231
321 317 312 311 311 311 310 308 306 303 294 287 287 288 290 294 289 278 276 279 280 281 285 287 286 279 268 259 255 254 253 252 251 248 244 242 239 236 235 234 236 239 239 239 238 235 234 234 234 232 226 223 223 222 220 218 216 215 214 214 215 217 218 216 213 196 172 169 178 182 184 187 192 195 194 195 199 202 207 213 217 220 223 227 232
316 312 311 313 314 312 310 306 301 299 295 289 288 290 291 294 291 288 288 290 290 291 289 284 281 279 273 262 254 252 252 250 249 249 248 247 244 239 235 233 236 240 241 242 241 239 238 237 237 234 226 222 222 221 219 218 217 216 215 214 214 217 216 214 213 200 181 174 175 181 185 186 188 192 191 190 193 199 206 212 214 216 220 224 228
314 313 317 318 315 310 307 303 298 299 300 298 297 298 300 300 299 297 296 296 294 291 287 281 275 273 272 267 257 250 249 248 246 247 248 247 244 241 238 236 237 238 239 241 242 241 240 240 240 236 228 223 223 223 221 218 217 216 216 215 214 213 212 210 209 201 189 180 174 175 182 185 184 186 191 193 192 194 200 205 210 213 215 218 224
318 319 319 316 311 307 304 300 296 298 302 303 303 306 307 305 304 301 298 295 291 286 281 276 272 269 269 267 260 251 247 245 245 247 247 246 244 242 241 239 239 240 241 243 244 243 242 241 241 239 232 227 225 225 223 220 218 218 217 217 213 209 207 206 205 202 192 180 175 176 179 184 186 186 191 195 196 198 197 197 205 212 214 219 223
322 318 315 311 307 304 301 299 298 299 302 304 306 309 309 308 307 306 303 300 295 289 283 278 277 277 275 273 266 258 252 247 244 244 245 244 243 242 241 240 241 243 245 245 246 246 245 242 241 241 237 233 230 228 226 222 219 218 218 217 212 207 204 202 201 200 194 183 177 177 176 180 185 185 185 188 191 198 200 199 202 208 213 220 225
322 318 313 308 304 303 304 308 310 309 308 309 310 309 310 311 311 307 303 298 294 292 290 289 289 287 287 285 275 263 256 251 246 245 247 247 244 241 239 238 239 242 244 245 245 246 247 246 245 245 242 239 235 232 230 227 222 218 216 213 209 205 202 199 197 196 194 188 180 176 175 179 182 178 178 185 190 194 198 200 204 204 206 213 219
319 315 312 311 311 311 314 319 317 313 313 313 312 313 317 319 318 312 304 296 291 290 290 291 290 286 285 286 278 265 256 252 250 250 251 250 246 242 239 237 238 239 241 243 244 244 245 247 247 247 245 242 239 235 233 230 226 222 217 211 207 203 200 197 196 194 192 191 187 181 179 183 185 182 182 189 193 193 193 197 202 202 200 204 213
318 316 319 322 319 317 321 320 316 313 313 310 306 310 318 320 317 310 300 292 289 287 287 286 286 282 278 277 274 266 256 252 252 252 253 252 250 245 241 239 238 238 238 238 239 241 243 245 246 246 246 245 242 238 235 232 228 224 219 213 208 205 201 197 195 194 194 194 191 188 187 188 187 187 187 187 189 192 193 195 197 196 194 196 201
323 326 325 320 314 312 317 316 311 309 308 307 307 314 318 317 312 304 295 290 287 284 283 282 280 279 274 270 270 265 255 248 249 252 254 253 251 249 246 242 237 235 235 234 235 238 239 242 244 244 245 246 243 240 236 232 230 225 220 215 211 208 205 202 199 196 195 195 193 193 194 190 186 187 188 187 187 190 193 193 193 192 192 193 192
327 327 319 313 309 309 311 309 308 310 312 313 318 320 317 313 308 301 293 289 286 282 281 280 277 273 266 264 266 264 258 251 250 253 253 250 250 249 248 245 240 237 237 236 235 236 235 236 238 239 241 243 242 239 235 231 229 225 219 215 211 209 208 208 206 202 199 196 196 198 198 192 187 188 190 188 186 185 187 191 194 194 194 195 198
324 319 313 311 311 310 309 311 315 319 320 319 317 314 310 307 305 301 294 288 284 279 278 280 279 273 263 258 259 259 257 255 253 253 253 251 252 250 248 247 244 241 241 239 237 236 234 232 233 234 236 236 235 234 231 227 223 217 213 211 209 208 208 208 208 206 203 200 200 202 201 196 193 191 190 190 188 186 187 190 193 193 193 197 204
318 314 312 315 317 316 316 320 323 322 318 314 311 308 305 302 301 300 296 290 286 282 281 283 285 282 272 263 259 258 260 260 257 256 255 255 256 254 250 248 245 243 243 242 239 235 233 231 232 233 233 231 230 229 226 222 216 210 207 207 207 207 206 207 207 206 205 204 204 204 201 199 196 192 188 188 189 190 191 192 193 191 189 193 205
316 315 316 319 320 320 320 322 321 317 313 311 308 306 305 302 300 298 295 291 287 284 283 284 285 285 279 270 264 265 269 270 265 263 263 262 264 262 257 251 246 244 245 246 242 236 232 230 231 231 231 230 229 226 221 216 210 204 203 204 204 204 204 206 207 207 206 205 204 203 200 197 195 190 187 187 188 189 187 185 188 185 180 185 210
318 318 319 320 319 317 320 321 318 314 312 310 307 306 305 301 299 296 292 290 289 287 285 287 287 287 285 279 274 272 275 276 272 268 266 265 264 262 258 253 249 246 246 248 245 240 236 234 232 230 228 227 226 221 214 209 204 200 199 199 198 199 201 203 203 204 204 202 200 199 195 193 192 189 189 189 190 189 183 178 182 184 177 180 218
320 320 319 318 316 316 319 319 315 312 310 308 306 305 304 300 296 293 289 286 288 288 286 286 286 285 283 282 279 276 275 275 272 268 266 265 263 261 258 254 251 248 247 246 243 241 240 237 232 228 225 225 222 216 208 203 199 197 195 192 191 192 193 194 194 194 194 191 189 186 184 184 186 186 187 189 191 194 193 190 191 188 182 191 213
321 321 319 316 315 316 318 317 314 311 307 305 305 305 302 300 297 292 286 281 282 285 285 283 283 283 282 279 276 274 273 273 273 269 266 264 264 261 256 250 248 246 242 238 236 237 238 235 230 226 225 223 217 211 207 201 195 194 192 187 186 189 187 185 186 185 181 175 170 168 167 169 175 177 180 186 191 197 202 203 202 196 192 201 208
322 320 317 316 316 316 316 315 312 309 306 305 306 305 302 299 298 295 292 288 285 285 284 280 278 280 281 279 276 274 271 271 272 271 268 268 267 263 255 245 241 239 234 228 226 227 228 227 224 220 220 218 213 208 207 201 193 191 190 186 185 186 182 180 181 180 175 168 163 163 161 161 167 169 170 177 186 193 198 204 209 209 208 209 206
321 320 318 318 317 316 314 313 310 308 307 305 303 303 302 301 300 302 302 298 294 288 283 280 277 279 282 281 278 276 278 282 285 285 282 281 278 272 261 249 240 234 228 221 218 217 215 216 217 213 210 210 208 206 207 200 191 189 190 188 186 182 177 177 178 176 171 165 161 161 161 161 166 170 172 178 187 193 198 205 215 221 225 224 215
321 321 320 318 316 314 313 313 311 309 308 305 302 302 304 304 303 305 306 303 297 287 279 278 278 279 283 286 288 293 301 305 303 298 291 287 284 276 267 259 250 237 223 211 208 210 207 210 213 208 203 203 202 205 207 196 185 186 189 185 180 176 173 174 173 168 163 159 157 157 160 163 166 171 177 183 190 197 206 216 225 230 235 237 231
322 321 319 317 316 315 314 313 312 311 309 307 303 302 306 309 310 311 310 308 303 295 291 295 293 290 296 305 309 311 311 309 304 298 293 289 284 275 264 258 252 235 217 204 202 203 203 207 209 202 198 199 199 203 204 191 178 181 185 180 172 169 168 168 164 159 155 154 156 157 160 164 167 171 179 187 195 207 218 225 230 232 233 238 242
322 320 318 317 316 316 315 314 314 313 311 309 307 306 307 312 315 315 315 314 312 313 326 330 323 315 316 316 312 309 308 306 300 295 292 291 287 276 264 260 248 224 209 205 203 200 199 202 200 194 193 196 196 201 199 183 172 176 180 174 166 163 161 159 156 154 153 154 157 158 160 166 171 176 185 195 204 212 217 215 216 222 224 230 237
321 319 319 318 318 317 316 315 315 315 315 315 313 310 311 315 317 316 318 319 317 320 332 335 328 321 318 313 307 303 301 299 298 298 297 295 290 276 268 264 237 204 199 201 199 197 197 194 189 186 187 188 192 196 186 170 166 171 171 165 158 156 156 155 154 155 156 158 158 156 158 165 173 180 189 198 199 198 197 193 194 200 206 215 223
321 320 320 319 319 318 317 317 317 318 319 320 318 315 314 316 316 315 317 318 316 315 322 330 326 316 311 311 309 305 299 296 301 305 303 299 295 282 268 247 202 186 189 190 187 185 184 180 177 178 179 179 183 180 166 157 158 160 158 155 154 154 156 156 156 158 158 156 155 154 156 163 170 175 181 184 180 175 173 173 177 180 184 192 190
322 322 321 321 321 321 319 319 319 321 322 323 322 320 319 317 314 313 314 315 314 313 316 324 322 311 309 322 324 315 303 293 298 307 305 303 305 288 242 184 159 157 159 158 157 160 164 167 168 167 165 162 163 159 151 147 145 143 144 149 152 155 158 160 160 160 157 154 154 154 157 162 166 168 171 168 162 158 158 163 166 165 165 165 143
323 322 322 322 322 322 321 321 321 323 324 324 324 323 320 317 314 310 309 310 309 309 315 322 321 315 323 335 324 312 302 292 300 307 303 308 318 146 142 137 137 141 142 141 143 148 153 154 152 151 145 135 132 133 132 131 130 132 136 143 147 150 154 156 156 155 155 156 155 154 157 160 161 161 161 156 151 148 149 152 154 150 145 131 109
323 323 324 324 323 323 322 322 323 324 324 323 322 320 318 315 310 308 311 316 313 309 316 326 328 329 334 327 308 300 297 305 313 301 290 311 358 128 132 133 137 140 140 141 141 139 137 134 131 129 125 118 115 116 116 118 122 127 133 138 141 143 147 150 150 151 155 158 157 155 155 154 154 154 152 148 144 142 144 144 140 136 131 115 95
324 324 325 324 324 323 322 322 323 324 323 322 321 320 320 318 311 304 311 321 321 319 326 334 335 333 329 317 306 299 294 305 316 296 284 326 122 136 138 139 140 137 138 141 137 128 121 117 115 117 119 118 117 117 118 119 120 121 126 134 138 141 144 147 150 153 158 160 158 155 153 150 149 151 150 145 140 137 138 137 130 125 121 110 98
324 324 324 322 321 321 321 321 322 322 322 322 322 321 322 323 322 314 313 320 325 332 343 344 337 333 325 312 313 313 304 311 324 278 247 132 134 137 136 137 136 137 141 140 129 117 116 114 114 120 124 122 122 123 124 124 122 122 125 129 136 141 144 147 151 156 158 158 154 152 152 151 150 151 150 146 142 137 133 130 124 120 118 118 118
323 321 321 320 320 320 320 319 319 319 320 321 322 321 321 323 325 328 333 335 336 344 353 349 342 345 352 353 353 357 343 337 6 150 170 140 135 133 134 135 134 137 143 137 123 115 119 118 117 123 123 121 124 127 129 129 130 131 132 131 134 144 149 151 156 158 156 153 150 149 151 153 151 151 150 147 144 140 136 131 127 125 128 139 158
323 321 320 321 321 321 320 318 317 318 318 319 320 319 319 321 322 325 331 337 344 351 358 358 353 356 11 24 27 23 11 14 81 121 136 139 136 132 132 133 132 138 143 135 121 118 121 118 120 126 126 125 129 132 133 135 136 136 137 137 140 147 152 154 157 156 152 151 151 151 152 153 151 150 149 146 144 143 142 141 140 143 148 156 162
326 322 321 321 320 319 318 317 316 315 315 315 315 314 314 315 313 313 319 329 340 348 355 1 3 6 13 22 28 29 30 55 87 109 133 136 133 127 123 120 119 132 141 135 127 126 125 122 124 129 131 133 135 135 136 137 138 138 139 141 144 147 150 152 153 152 150 151 152 152 153 153 152 151 149 147 145 146 146 146 148 151 153 151 126
328 325 324 323 322 319 318 316 314 313 313 313 313 312 311 310 308 307 309 313 323 336 342 348 358 10 17 22 31 38 44 59 77 109 131 131 127 123 119 112 107 115 124 126 127 130 129 128 130 133 135 137 138 140 140 140 142 144 145 146 146 147 149 151 152 152 153 154 153 152 153 153 153 153 151 149 148 150 151 152 152 147 139 127 76
330 328 326 326 324 321 318 317 316 314 313 312 312 313 313 310 307 309 312 312 318 333 339 340 354 14 24 25 31 41 47 51 66 103 121 126 127 126 121 112 108 111 111 114 120 124 126 131 133 135 137 139 140 143 144 145 149 152 153 152 152 151 151 153 154 154 155 155 155 157 157 157 156 155 153 151 150 151 152 152 150 139 121 103 72
331 329 328 326 325 322 320 320 319 317 315 315 314 313 313 312 311 313 314 316 323 337 341 343 355 12 19 21 30 48 61 69 81 96 108 119 127 126 117 110 111 111 109 114 121 122 124 132 136 138 141 143 144 146 147 149 153 155 155 156 156 155 155 156 156 158 158 158 159 161 160 158 157 156 155 153 151 150 151 149 146 140 127 119 121
332 330 328 326 325 323 322 322 322 322 320 319 318 316 314 313 313 316 317 321 331 342 345 349 357 3 6 13 29 56 77 84 89 93 98 106 112 112 110 111 113 112 112 120 129 129 130 137 142 144 146 147 148 149 150 152 155 157 157 157 157 155 155 156 158 161 162 160 160 162 161 160 159 159 159 157 154 154 155 152 148 147 149 161 197
333 331 330 329 328 327 327 326 324 324 323 322 320 318 315 313 314 318 321 326 338 348 350 354 360 2 6 17 35 61 76 79 80 83 87 93 99 105 110 113 115 117 122 129 135 137 138 141 146 148 149 151 152 154 155 156 159 162 162 159 156 156 158 160 161 163 164 163 163 164 164 163 162 163 164 163 161 161 162 159 156 157 159 173 237
332 331 330 331 331 331 330 329 328 327 325 323 321 320 317 315 315 319 324 334 347 352 353 358 3 6 16 33 51 65 71 71 72 79 85 89 94 101 109 114 119 126 131 134 140 145 146 148 152 154 155 156 158 159 160 162 164 165 163 161 160 161 164 165 165 166 168 167 167 167 166 166 165 166 167 168 169 171 169 165 162 164 165 256 302
332 331 330 331 333 334 333 332 332 331 329 327 325 323 321 320 320 323 333 348 356 353 356 6 12 15 26 41 56 66 72 72 74 78 82 86 91 95 100 110 122 131 134 138 145 151 152 154 158 160 160 162 163 163 165 167 167 165 163 163 164 164 165 167 169 170 171 171 171 170 169 169 170 172 174 176 177 175 172 168 164 165 227 299 300
332 331 331 332 334 335 335 335 335 335 335 335 333 332 334 338 341 345 354 4 5 360 0 11 19 24 31 40 52 67 73 71 73 78 80 81 84 86 88 96 109 124 135 142 149 155 156 158 160 162 164 165 166 168 169 170 168 167 165 166 168 168 167 169 173 174 174 175 175 174 172 172 175 180 183 185 184 180 175 175 172 172 259 296 312
334 332 332 334 336 336 336 336 337 338 340 340 339 342 350 358 2 4 6 9 10 8 8 15 24 31 36 42 52 66 70 68 70 75 77 79 81 81 82 87 94 106 123 135 144 152 155 155 156 160 163 165 167 170 172 171 170 170 169 170 171 171 171 174 176 177 179 179 177 177 178 178 183 189 191 189 190 188 183 183 190 219 315 326 338
336 336 335 336 338 338 339 340 341 341 342 343 344 349 360 5 6 7 10 12 12 12 17 24 30 35 40 45 51 58 62 63 66 71 74 78 81 80 80 85 89 96 107 118 129 141 147 147 147 149 152 156 160 164 165 167 172 175 175 174 174 175 178 181 183 184 185 184 181 181 184 186 190 195 195 193 195 199 198 202 250 317 337 342 344
338 338 338 339 340 340 342 343 344 344 346 348 349 352 1 6 7 9 13 15 14 16 22 29 35 38 42 45 48 53 58 62 66 70 73 77 80 80 82 84 84 87 96 106 116 127 133 134 135 137 139 142 148 152 155 161 168 174 178 180 182 184 185 188 189 189 190 190 188 187 189 191 194 197 198 198 200 205 213 239 288 318 335 341 340
341 341 341 341 341 341 342 345 346 348 350 351 350 351 359 6 9 11 14 16 19 22 27 32 37 41 44 47 50 54 59 66 70 73 75 78 80 81 84 85 84 85 91 99 107 114 117 119 122 127 132 137 142 146 151 156 162 169 177 183 186 185 183 184 188 191 190 191 194 195 193 194 197 199 202 205 205 210 230 270 303 321 331 333 329
344 344 343 341 341 342 343 346 348 350 351 351 350 352 358 5 9 12 15 19 22 27 32 37 41 44 48 52 54 56 60 67 72 75 77 79 81 84 87 88 87 87 91 98 105 108 111 115 119 123 128 135 140 143 147 152 157 162 168 170 166 164 165 169 178 186 187 188 194 197 195 196 199 201 205 211 215 228 260 295 310 315 319 319 315
346 345 344 343 342 344 346 347 349 351 351 350 350 354 360 6 10 13 16 21 26 29 34 38 42 46 50 54 56 57 62 68 73 77 79 81 84 89 92 92 90 90 92 97 102 106 109 114 119 122 126 133 137 137 138 141 141 141 145 146 146 150 161 169 176 182 185 186 191 194 196 201 204 204 209 219 228 246 278 301 305 306 310 311 310
348 347 346 345 346 348 348 348 350 352 352 351 352 356 1 7 11 14 18 24 28 32 36 40 43 48 54 56 57 59 64 69 72 75 78 80 83 88 92 92 93 93 94 97 102 108 112 116 118 121 123 125 126 127 129 131 132 133 137 140 144 152 161 167 172 177 180 183 189 194 200 208 212 210 216 229 246 270 293 303 304 306 308 309 310
350 350 349 348 349 350 350 350 351 352 352 352 354 358 3 7 12 16 21 25 29 33 38 42 48 52 56 57 59 62 66 69 70 72 76 81 85 88 91 92 93 95 98 104 108 112 113 115 117 119 120 121 123 126 127 127 128 130 132 136 142 150 154 158 165 172 176 183 191 198 205 214 220 221 231 252 275 290 299 302 302 305 308 308 312
353 352 352 351 351 351 351 352 353 353 353 353 355 360 5 8 12 17 22 25 28 34 39 45 52 57 59 60 64 67 68 70 72 74 77 82 87 90 93 95 97 100 105 110 112 112 114 116 117 118 120 122 123 124 124 123 123 124 127 132 139 145 150 157 165 172 177 185 196 205 212 221 228 242 266 286 293 297 301 302 303 306 310 311 312